Weather History for Portage Glacier, AK

Change the Weather History Date:

Sunday, April 6, 2014

  Actual Average Record
Temperature  
Mean Temperature 37 °F -  
Max Temperature 41 °F - - ()
Min Temperature 35 °F - - ()
Degree Days  
Heating Degree Days 28    
Moisture  
Dew Point 33 °F    
Average Humidity 86    
Maximum Humidity 93    
Minimum Humidity 77    
Precipitation  
Precipitation 0.00 in - - ()
Sea Level Pressure  
Sea Level Pressure 29.58 in    
Wind  
Wind Speed 7 mph (SE)    
Max Wind Speed 10 mph    
Max Gust Speed 18 mph    
Visibility 10 miles    
Events Rain    
T = Trace of Precipitation, MM = Missing Value Source: NWS Daily Summary

Daily Weather History Graph

Daily Weather History Graph

Search for Another Location

Airport:

Trip Planner

Search our weather history database for the weather conditions in past years. The results will help you decide how hot, cold, wet, or windy it might be!

Date:

Astronomy

Apr. 06, 2014 Rise Set
Actual Time 7:03 AM AKDT 8:53 PM AKDT
Civil Twilight 6:18 AM AKDT 9:39 PM AKDT
Nautical Twilight 5:20 AM AKDT 10:37 PM AKDT
Astronomical Twilight 4:08 AM AKDT 11:51 PM AKDT
Moon 11:20 AM AKDT (4/6) 3:50 AM AKDT (4/6)
Length of Visible Light 15h 21m
Length of Day
13h 50m
Waxing Crescent, 45% of the Moon is Illuminated
Apr 6
Waxing Crescent
Apr 7
First Quarter
Apr 14
Full
Apr 21
Last Quarter
Apr 28
New

Hourly Weather History & Observations

Time (AKDT) Temp. Windchill Dew Point Humidity Pressure Visibility Wind Dir Wind Speed Gust Speed Precip Events Conditions
12:39 AM 36.0 °F 30.3 °F 33.1 °F 89% 29.50 in 10.0 mi Variable 6.9 mph - N/A   Overcast
12:53 AM 36.0 °F 29.0 °F 33.1 °F 89% 29.51 in 10.0 mi South 9.2 mph - N/A   Overcast
1:01 AM 36.0 °F 30.3 °F 33.1 °F 89% 29.50 in 10.0 mi Variable 6.9 mph 17.3 mph N/A   Overcast
1:53 AM 36.0 °F 29.0 °F 33.1 °F 89% 29.53 in 10.0 mi SSE 9.2 mph - N/A   Overcast
2:53 AM 36.0 °F 31.1 °F 33.1 °F 89% 29.54 in 10.0 mi SSE 5.8 mph - N/A   Overcast
3:53 AM 37.0 °F 31.6 °F 33.1 °F 86% 29.55 in 10.0 mi Variable 6.9 mph - N/A   Overcast
4:07 AM 37.0 °F 31.0 °F 32.0 °F 82% 29.55 in 10.0 mi SE 8.1 mph 17.3 mph N/A   Overcast
4:40 AM 36.0 °F - 33.1 °F 89% 29.55 in 10.0 mi North - - N/A   Overcast
4:53 AM 36.0 °F 30.3 °F 33.1 °F 89% 29.56 in 10.0 mi Variable 6.9 mph - N/A   Overcast
5:08 AM 36.0 °F 30.3 °F 33.1 °F 89% 29.55 in 10.0 mi SE 6.9 mph 16.1 mph N/A   Overcast
5:53 AM 37.0 °F 31.6 °F 33.1 °F 86% 29.56 in 10.0 mi SE 6.9 mph - N/A   Overcast
6:53 AM 36.0 °F 30.3 °F 33.1 °F 89% 29.57 in 10.0 mi Variable 6.9 mph 17.3 mph N/A   Overcast
7:53 AM 36.0 °F 31.1 °F 33.1 °F 89% 29.58 in 10.0 mi Variable 5.8 mph - N/A   Overcast
8:17 AM 36.0 °F 30.3 °F 33.1 °F 89% 29.58 in 10.0 mi Variable 6.9 mph - N/A   Overcast
8:53 AM 37.0 °F 32.4 °F 32.0 °F 82% 29.59 in 10.0 mi Variable 5.8 mph - N/A   Overcast
9:26 AM 37.0 °F 32.4 °F 33.1 °F 86% 29.59 in 10.0 mi Variable 5.8 mph - N/A   Overcast
9:53 AM 37.0 °F 31.6 °F 33.1 °F 86% 29.60 in 10.0 mi SSE 6.9 mph - N/A   Overcast
10:21 AM 37.9 °F 31.5 °F 33.1 °F 83% 29.60 in 10.0 mi SSE 9.2 mph - N/A   Overcast
10:40 AM 37.9 °F 32.7 °F 33.1 °F 83% 29.60 in 10.0 mi SSE 6.9 mph - N/A   Overcast
10:53 AM 37.9 °F 32.1 °F 33.1 °F 83% 29.61 in 10.0 mi SSE 8.1 mph - 0.00 in Rain Light Rain
11:08 AM 37.9 °F 32.7 °F 33.1 °F 83% 29.61 in 10.0 mi South 6.9 mph - 0.00 in Rain Light Rain
11:53 AM 37.0 °F 32.4 °F 33.1 °F 86% 29.62 in 10.0 mi SSE 5.8 mph - 0.00 in Rain Light Rain
12:51 PM 39.2 °F 35.0 °F 33.8 °F 81% 29.62 in 10.0 mi SSE 5.8 mph - 0.00 in   Overcast
12:53 PM 39.0 °F 33.4 °F 33.1 °F 79% 29.62 in 10.0 mi SSE 8.1 mph - 0.00 in   Overcast
1:07 PM 39.9 °F 35.1 °F 33.1 °F 77% 29.62 in 10.0 mi South 6.9 mph - N/A   Overcast
1:53 PM 39.0 °F 32.8 °F 33.1 °F 79% 29.62 in 10.0 mi South 9.2 mph 18.4 mph 0.00 in   Overcast
2:53 PM 39.9 °F 34.5 °F 33.1 °F 77% 29.62 in 10.0 mi SSE 8.1 mph - N/A   Overcast
3:53 PM 37.9 °F 32.7 °F 33.1 °F 83% 29.62 in 10.0 mi Variable 6.9 mph - 0.00 in Rain Light Rain
4:53 PM 37.9 °F 32.7 °F 33.1 °F 83% 29.61 in 10.0 mi ESE 6.9 mph - 0.00 in   Overcast
5:53 PM 37.9 °F 33.5 °F 33.1 °F 83% 29.60 in 10.0 mi ESE 5.8 mph - N/A   Overcast
6:08 PM 37.9 °F 33.5 °F 33.1 °F 83% 29.59 in 10.0 mi SE 5.8 mph - N/A   Overcast
6:33 PM 37.9 °F 32.7 °F 33.1 °F 83% 29.58 in 10.0 mi East 6.9 mph - N/A   Overcast
6:53 PM 37.9 °F 33.5 °F 33.1 °F 83% 29.59 in 10.0 mi Variable 5.8 mph - N/A   Overcast
7:53 PM 36.0 °F 30.3 °F 33.1 °F 89% 29.58 in 10.0 mi SE 6.9 mph - 0.00 in Rain Light Rain
8:46 PM 35.1 °F 28.6 °F 33.1 °F 92% 29.58 in 10.0 mi ESE 8.1 mph - 0.00 in   Overcast
8:53 PM 35.1 °F 31.0 °F 33.1 °F 92% 29.58 in 10.0 mi Variable 4.6 mph - 0.00 in Rain Light Rain
9:53 PM 36.0 °F 29.6 °F 33.1 °F 89% 29.57 in 10.0 mi East 8.1 mph - 0.00 in Rain Light Rain
10:22 PM 36.0 °F 32.1 °F 34.0 °F 93% 29.57 in 10.0 mi Variable 4.6 mph - 0.00 in Rain Light Rain
10:33 PM 35.1 °F 27.4 °F 33.1 °F 92% 29.57 in 10.0 mi East 10.4 mph - 0.00 in Rain Light Rain
10:53 PM 36.0 °F 31.1 °F 34.0 °F 93% 29.57 in 10.0 mi Variable 5.8 mph - 0.00 in Rain Light Rain
11:53 PM 35.1 °F 30.1 °F 33.1 °F 92% 29.56 in 10.0 mi Variable 5.8 mph - 0.00 in Rain Light Rain